カタログに戻る

STARLINK-35707

運用中通信VLEO
NORAD 66533·PAYLOAD·🇺🇸 United States

打ち上げ Nov 19, 2025 から Cape Canaveral Space Force Station

Loading…

次のパス (今後24時間)

TLE

最新Source: CelesTrak SupGP

元期: Sep 15, 2026, 03:19 UTC

1 66533C 25265T   26258.13868056 -.00001189  00000+0 -43054-4 0  2581
2 66533  42.9999 288.0378 0001327 267.5767 216.6865 15.27588281    18

AllMySatでSTARLINK-35707をリアルタイム追跡

Download on the App Store